Погода в Мастахе

Россия / Республика Саха (Якутия)     63°43′19″N   124°11′32″E
темп.,
°C
ветер,
м/с
пор.,
м/с
влажн.,
%
обл.,
%
осадки,
мм/ч
давл.,
гПа
погр.,
м
31 июля, сб
сб3100:00+14ююз11505 0.0 101611
03:00+13з225086 0.0 101711
06:00+15з235332 0.0 101761
09:00+21зсз34353 0.0 1018375
12:00+26сз34255 0.0 10171230
15:00+28ссз44215 0.0 10161937
18:00+28сз352420 0.0 10151618
21:00+20сз224829 0.0 101614
1 августа, вс
вс100:00+17зсз33545 0.0 101633
03:00+15зсз22590 0.0 101713
06:00+17сз22573 0.0 101739
09:00+24ссз23366 0.0 1016354
12:00+29ссз22250 0.0 10151278
15:00+31с34230 0.0 10131722
18:00+30ссв33280 0.0 10121810
21:00+23в224811 0.0 101211
2 августа, пн
пн200:00+20всв22535 0.0 101211
03:00+18в2255100 0.0 101226
06:00+20в31152100 0.0 1011267
09:00+25в61134100 0.0 1010574
12:00+28вюв6826100 0.0 10101105
15:00+28в6824100 0.0 10081408
18:00+28вюв5923100 0.0 10081441
21:00+22всв3739100 0.0 1007104
3 августа, вт
вт300:00+20всв41040100 0.0 1007207
03:00+17в3752100 0.0 1008131
06:00+17юв386479 0.0 1009262
09:00+23вюв465322 0.0 1009694
12:00+26вюв5744100 0.0 10091390
15:00+28вюв6840100 0.0 10082019
18:00+27в673698 0.0 10072100
21:00+22в375530 0.0 1008132
4 августа, ср
ср400:00+18вюв387419 0.0 1008168
03:00+15вюв348717 0.0 100975
06:00+17вюв37813 0.0 1009199
09:00+23юв35481 0.0 1008657
12:00+27в463515 0.0 10071559
15:00+29в453033 0.0 10062252
18:00+28в3434100 0.0 10061836
21:00+23юв1248100 0.0 100611